Regional Weather Roundup
Issued by NWS Charleston, WV

Home | Current Version | Previous Version | Graphics & Text | Print | Product List | Glossary On
Versions: 1 2 3 4 5 6 7 8 9 10 11 12 13 14 15 16 17 18 19 20 21 22 23 24 25 26 27 28 29 30 31 32 33 34 35 36 37 38 39 40 41 42 43 44 45 46 47 48 49 50
000
ASUS41 KRLX 101910
RWRRLX
West Virginia Regional Weather Roundup
National Weather Service Charleston WV
200 PM EST WED FEB 10 2016

Note: "fair" indicates few or no clouds below 12,000 feet with no
significant weather and/or obstructions to visibility.

WVZ003-102000-
Northern Panhandle of West Virginia

CITY           SKY/WX    TMP DP  RH WIND       PRES   REMARKS
WHEELING       LGT SNOW  19  11  70 W14       29.83F WCI   6
$$

WVZ009-102000-
Northwest West Virginia

CITY           SKY/WX    TMP DP  RH WIND       PRES   REMARKS
PARKERSBURG    LGT SNOW  20  13  74 W8G21     29.95S
$$

WVZ006-102000-
Western West Virginia

CITY           SKY/WX    TMP DP  RH WIND       PRES   REMARKS
HUNTINGTON     FLURRIES  21   9  59 SW14G22   29.99F WCI   8
$$

WVZ015-102000-
West Central West Virginia

CITY           SKY/WX    TMP DP  RH WIND       PRES   REMARKS
CHARLESTON     LGT SNOW  21   8  57 W10       29.95S WCI  10
$$

WVZ022-031-102000-
North Central West Virginia

CITY           SKY/WX    TMP DP  RH WIND       PRES   REMARKS
CLARKSBURG     LGT SNOW  18  11  74 W10       29.87S WCI   6
MORGANTOWN     CLOUDY    19   8  62 SW10G17   29.85F HAZE    WCI   7
$$

WVZ025-035-042-045-102000-
Southern West Virginia

CITY           SKY/WX    TMP DP  RH WIND       PRES   REMARKS
BECKLEY        LGT SNOW  15   7  70 W13G24    29.82S VSB 1   WCI   1
LOGAN          LGT SNOW  18  12  79 VRB7G15   29.92S WCI   8
BLUEFIELD      FLURRIES  14   4  64 W21G29    29.80S WCI  -4
LEWISBURG      CLOUDY    21  10  60 W9        29.81S
$$

WVZ047-102000-
Northern Mountains of West Virginia

CITY           SKY/WX    TMP DP  RH WIND       PRES   REMARKS
ELKINS         FLURRIES  16   5  62 W10       29.81F WCI   4
$$

WVZ052-102000-
Eastern Panhandle of West Virginia

CITY           SKY/WX    TMP DP  RH WIND       PRES   REMARKS
MARTINSBURG    PTSUNNY   32  10  40 W21G30    29.78S
PETERSBURG     CLOUDY    25   7  46 W14G25    29.84R
$$



USA.gov is the U.S. government's official web portal to all federal, state and local government web resources and services.